Regional Weather Roundup
Issued by NWS

Home | Current Version | Previous Version | Text Only | Print | Product List | Glossary Off
Versions: 1 2 3 4 5 6 7 8 9 10 11 12 13 14 15 16 17 18 19 20 21 22 23 24 25 26 27 28 29 30 31 32 33 34 35 36 37 38 39 40 41 42 43 44 45 46 47 48 49 50

000
ASUS45 KCYS 211510
RWRWY

WYOMING REGIONAL WEATHER ROUNDUP
NATIONAL WEATHER SERVICE CHEYENNE WY
800 AM MST SAT JAN 21 2017

NOTE:  "FAIR" INDICATES FEW OR NO CLOUDS BELOW 12,000 FEET
WITH NO SIGNIFICANT WEATHER AND/OR OBSTRUCTIONS TO VISIBILITY.

WYZ001-211600-
YELLOWSTONE NATIONAL PARK

CITY           SKY/WX    TMP DP  RH WIND       PRES   REMARKS
LK YELLOWSTONE   N/A      8   6  92 CALM      29.35R
W YELLOWSTONE  NOT AVBL

$$
WYZ002>013-054>058-071-098>099-211600-
NORTHERN WYOMING

CITY           SKY/WX    TMP DP  RH WIND       PRES   REMARKS
JACKSON        PTCLDY    14  12  92 CALM      29.37R
CODY           CLOUDY    21  11  65 SW5       29.35R WCI  15
GREYBULL       FOG        7   4  87 CALM      29.40R VSB<1/4
WORLAND        CLOUDY     2   1  96 CALM      29.38  FOG
SHERIDAN       FAIR      17  12  80 SE6       29.35R WCI   9
BUFFALO        FAIR      27  16  63 W8        29.34R WCI  19
GILLETTE       FAIR      15  12  88 SW3       29.35R
HULETT         FAIR      21  19  93 MISG      29.36S
NEWCASTLE      FAIR      21  21 100 N6        29.37S WCI  14

$$
WYZ014>020-022>026-101>103-211600-
CENTRAL WYOMING

CITY           SKY/WX    TMP DP  RH WIND       PRES   REMARKS
BIG PINEY      MOCLDY     4   3  96 CALM      29.35S
PINEDALE       CLOUDY    12  10  92 NW3       29.36R
DUBOIS         NOT AVBL
LANDER         FAIR      11  10  96 CALM      29.36R FOG
RIVERTON       FOG        8   6  92 CALM      29.37R VSB 1/4
CASPER         FAIR      16  13  88 N7        29.35R WCI   6
DOUGLAS        FAIR      14  11  87 CALM      29.38R

$$
WYZ021-027>030-104>119-211600-
SOUTHERN WYOMING

CITY           SKY/WX    TMP DP  RH WIND       PRES   REMARKS
EVANSTON       LGT SNOW  17  13  84 CALM      29.31R VSB 3/4
ROCK SPRINGS   FAIR      12  10  92 NE6       29.32R WCI   3
RAWLINS        MOCLDY     9   4  80 CALM      29.35R
LARAMIE        FAIR      10   4  76 SW8       29.33F WCI  -2
CHEYENNE       FAIR      19  12  74 W6        29.36R WCI  11
TORRINGTON     FAIR      18  14  84 CALM      29.39R

$$



USA.gov is the U.S. government's official web portal to all federal, state and local government web resources and services.